Location: Newark
(34.0131°N, 4.3314°W)
Time: 02:19:33
(UTC+00:00)

Courier 1B - Pass Details

Date: 23 October 2019
Orbit: 963 x 1209 km, 28.3° (Epoch: 13 November)

Event Time Altitude Azimuth Distance (km) Brightness Sun altitude
Rises 20:47:32 0° 270° (W) 4,109 11.6 -40.5°
Reaches altitude 10° 20:50:34 10° 264° (W) 3,139 10.7 -41.1°
Enters shadow 20:54:57 31° 241° (WSW) 1,951 9.2 -42.0°
